TimeEDT,TemperatureF,Dew PointF,Humidity,Sea Level PressureIn,VisibilityMPH,Wind Direction,Wind SpeedMPH,Gust SpeedMPH,PrecipitationIn,Events,Conditions,WindDirDegrees,DateUTC
12:28 AM,62.6,60.8,94,30.12,1.8,Calm,Calm,-,N/A,,Clear,0,2013-10-03 04:28:00
12:37 AM,60.8,60.8,100,30.13,3.0,SSE,3.5,-,N/A,,Clear,150,2013-10-03 04:37:00
12:53 AM,61.0,61.0,100,30.12,5.0,Calm,Calm,-,N/A,,Clear,0,2013-10-03 04:53:00
1:53 AM,61.0,60.1,97,30.11,8.0,Calm,Calm,-,N/A,,Clear,0,2013-10-03 05:53:00
2:53 AM,60.1,60.1,100,30.10,7.0,Calm,Calm,-,N/A,,Clear,0,2013-10-03 06:53:00
3:13 AM,59.0,59.0,100,30.11,2.5,Calm,Calm,-,N/A,,Clear,0,2013-10-03 07:13:00
3:22 AM,59.0,59.0,100,30.10,1.0,Calm,Calm,-,N/A,,Clear,0,2013-10-03 07:22:00
3:29 AM,60.8,59.0,94,30.10,0.5,Calm,Calm,-,N/A,Fog,Fog,0,2013-10-03 07:29:00
3:35 AM,59.0,59.0,100,30.10,2.0,Calm,Calm,-,N/A,,Clear,0,2013-10-03 07:35:00
3:41 AM,60.8,59.0,94,30.10,1.0,Calm,Calm,-,N/A,,Mist,0,2013-10-03 07:41:00
3:48 AM,59.0,57.2,94,30.10,2.5,Calm,Calm,-,N/A,,Clear,0,2013-10-03 07:48:00
3:53 AM,57.9,57.9,100,30.09,6.0,Calm,Calm,-,N/A,,Clear,0,2013-10-03 07:53:00
4:53 AM,57.9,57.9,100,30.09,5.0,Calm,Calm,-,N/A,,Clear,0,2013-10-03 08:53:00
1:53 PM,82.0,59.0,45,30.12,10.0,SSW,4.6,-,N/A,,Clear,210,2013-10-03 17:53:00
2:53 PM,84.0,57.9,41,30.09,10.0,East,3.5,-,N/A,,Clear,100,2013-10-03 18:53:00
3:53 PM,84.9,57.9,40,30.08,10.0,East,6.9,-,N/A,,Clear,100,2013-10-03 19:53:00
4:53 PM,84.0,59.0,43,30.07,10.0,East,6.9,-,N/A,,Clear,90,2013-10-03 20:53:00
5:53 PM,82.9,59.0,44,30.06,10.0,Variable,3.5,-,N/A,,Clear,0,2013-10-03 21:53:00
6:53 PM,79.0,61.0,54,30.07,10.0,East,4.6,-,N/A,,Clear,90,2013-10-03 22:53:00
7:53 PM,72.0,62.1,71,30.08,10.0,Calm,Calm,-,N/A,,Clear,0,2013-10-03 23:53:00
8:53 PM,68.0,64.0,87,30.09,10.0,Calm,Calm,-,N/A,,Clear,0,2013-10-04 00:53:00
9:53 PM,64.9,64.0,97,30.10,10.0,Calm,Calm,-,N/A,,Clear,0,2013-10-04 01:53:00
10:53 PM,64.0,63.0,96,30.11,6.0,Calm,Calm,-,N/A,,Clear,0,2013-10-04 02:53:00